Time,TemperatureF,DewpointF,PressureIn,WindDirection,WindDirectionDegrees,WindSpeedMPH,WindSpeedGustMPH,Humidity,HourlyPrecipIn,Conditions,Clouds,dailyrainin,SoftwareType,DateUTC
2013-04-25 00:02:00,40.0,33.0,-100.00,SSW,205,14.0,16.0,74,-99.99,,,-99.99,,2013-04-25 05:02:00,
2013-04-25 00:12:00,40.0,33.0,-100.00,SSW,200,13.0,15.0,76,-99.99,,,-99.99,,2013-04-25 05:12:00,
2013-04-25 00:21:00,40.0,33.0,-100.00,SSW,200,14.0,21.0,76,-99.99,,,-99.99,,2013-04-25 05:21:00,
2013-04-25 00:32:00,40.0,33.0,-100.00,SSW,200,14.0,21.0,76,-99.99,,,-99.99,,2013-04-25 05:32:00,
2013-04-25 00:42:00,40.0,32.0,-100.00,SSW,205,15.0,20.0,74,-99.99,,,-99.99,,2013-04-25 05:42:00,
2013-04-25 00:52:00,40.0,32.0,-100.00,SSW,205,14.0,18.0,74,-99.99,,,-99.99,,2013-04-25 05:52:00,
2013-04-25 01:02:00,40.0,32.0,-100.00,SSW,205,14.0,18.0,74,-99.99,,,-99.99,,2013-04-25 06:02:00,
2013-04-25 01:11:00,39.0,32.0,-100.00,SSW,200,15.0,19.0,76,-99.99,,,-99.99,,2013-04-25 06:11:00,
2013-04-25 01:22:00,39.0,32.0,-100.00,SSW,205,16.0,20.0,76,-99.99,,,-99.99,,2013-04-25 06:22:00,
2013-04-25 01:32:00,39.0,32.0,-100.00,SSW,205,16.0,20.0,76,-99.99,,,-99.99,,2013-04-25 06:32:00,
2013-04-25 01:42:00,39.0,32.0,-100.00,SSW,205,16.0,20.0,76,-99.99,,,-99.99,,2013-04-25 06:42:00,
2013-04-25 01:52:00,38.0,32.0,-100.00,SW,215,14.0,17.0,79,-99.99,,,-99.99,,2013-04-25 06:52:00,
2013-04-25 02:02:00,38.0,32.0,-100.00,SW,215,14.0,17.0,79,-99.99,,,-99.99,,2013-04-25 07:02:00,
2013-04-25 02:12:00,38.0,33.0,-100.00,SSW,210,13.0,17.0,79,-99.99,,,-99.99,,2013-04-25 07:12:00,
2013-04-25 02:22:00,38.0,32.0,-100.00,SSW,195,15.0,19.0,78,-99.99,,,-99.99,,2013-04-25 07:22:00,
2013-04-25 02:32:00,38.0,32.0,-100.00,SSW,195,15.0,19.0,78,-99.99,,,-99.99,,2013-04-25 07:32:00,
2013-04-25 02:42:00,38.0,32.0,-100.00,SSW,210,14.0,19.0,77,-99.99,,,-99.99,,2013-04-25 07:42:00,
2013-04-25 02:52:00,39.0,32.0,-100.00,SSW,210,15.0,20.0,78,-99.99,,,-99.99,,2013-04-25 07:52:00,
2013-04-25 03:02:00,39.0,32.0,-100.00,SSW,210,15.0,20.0,78,-99.99,,,-99.99,,2013-04-25 08:02:00,
2013-04-25 03:11:00,39.0,33.0,-100.00,SW,215,14.0,18.0,77,-99.99,,,-99.99,,2013-04-25 08:11:00,
2013-04-25 03:21:00,40.0,33.0,-100.00,SSW,210,14.0,19.0,77,-99.99,,,-99.99,,2013-04-25 08:21:00,
2013-04-25 03:31:00,40.0,33.0,-100.00,SSW,210,14.0,19.0,77,-99.99,,,-99.99,,2013-04-25 08:31:00,
2013-04-25 03:42:00,40.0,33.0,-100.00,SW,215,14.0,19.0,77,-99.99,,,-99.99,,2013-04-25 08:42:00,
2013-04-25 03:52:00,41.0,33.0,-100.00,SW,215,15.0,24.0,74,-99.99,,,-99.99,,2013-04-25 08:52:00,
2013-04-25 04:01:00,41.0,33.0,-100.00,SW,215,15.0,24.0,74,-99.99,,,-99.99,,2013-04-25 09:01:00,
2013-04-25 04:11:00,41.0,34.0,-100.00,SW,215,16.0,21.0,75,-99.99,,,-99.99,,2013-04-25 09:11:00,
2013-04-25 04:21:00,40.0,33.0,-100.00,SW,225,15.0,24.0,75,-99.99,,,-99.99,,2013-04-25 09:21:00,
2013-04-25 04:33:00,40.0,33.0,-100.00,SW,225,15.0,24.0,75,-99.99,,,-99.99,,2013-04-25 09:33:00,
2013-04-25 04:42:00,39.0,33.0,-100.00,SW,225,14.0,16.0,77,-99.99,,,-99.99,,2013-04-25 09:42:00,
2013-04-25 04:52:00,39.0,33.0,-100.00,SW,225,14.0,17.0,78,-99.99,,,-99.99,,2013-04-25 09:52:00,
2013-04-25 05:02:00,39.0,33.0,-100.00,SW,225,14.0,17.0,78,-99.99,,,-99.99,,2013-04-25 10:02:00,
2013-04-25 05:12:00,39.0,33.0,-100.00,SW,225,14.0,17.0,79,-99.99,,,-99.99,,2013-04-25 10:12:00,
2013-04-25 05:22:00,39.0,33.0,-100.00,SW,235,15.0,19.0,79,-99.99,,,-99.99,,2013-04-25 10:22:00,
2013-04-25 05:32:00,39.0,33.0,-100.00,SW,235,15.0,19.0,79,-99.99,,,-99.99,,2013-04-25 10:32:00,
2013-04-25 05:42:00,39.0,33.0,-100.00,SW,235,15.0,21.0,78,-99.99,,,-99.99,,2013-04-25 10:42:00,
2013-04-25 05:53:00,39.0,33.0,-100.00,WSW,240,18.0,22.0,79,-99.99,,,-99.99,,2013-04-25 10:53:00,
2013-04-25 06:02:00,39.0,33.0,-100.00,WSW,240,18.0,22.0,79,-99.99,,,-99.99,,2013-04-25 11:02:00,
2013-04-25 06:12:00,39.0,33.0,-100.00,WSW,240,16.0,20.0,79,-99.99,,,-99.99,,2013-04-25 11:12:00,
2013-04-25 06:22:00,39.0,33.0,-100.00,WSW,240,16.0,19.0,79,-99.99,,,-99.99,,2013-04-25 11:22:00,
2013-04-25 06:32:00,39.0,33.0,-100.00,WSW,240,16.0,19.0,79,-99.99,,,-99.99,,2013-04-25 11:32:00,
2013-04-25 06:42:00,39.0,33.0,-100.00,WSW,245,15.0,20.0,80,-99.99,,,-99.99,,2013-04-25 11:42:00,
2013-04-25 06:52:00,39.0,33.0,-100.00,WSW,245,14.0,18.0,81,-99.99,,,-99.99,,2013-04-25 11:52:00,
2013-04-25 07:01:00,39.0,33.0,-100.00,WSW,245,14.0,18.0,81,-99.99,,,-99.99,,2013-04-25 12:01:00,
2013-04-25 07:12:00,39.0,34.0,-100.00,WSW,250,13.0,18.0,81,-99.99,,,-99.99,,2013-04-25 12:12:00,
2013-04-25 07:21:00,40.0,35.0,-100.00,West,275,14.0,17.0,82,-99.99,,,-99.99,,2013-04-25 12:21:00,
2013-04-25 07:32:00,40.0,35.0,-100.00,West,275,14.0,17.0,82,-99.99,,,-99.99,,2013-04-25 12:32:00,
2013-04-25 07:42:00,40.0,35.0,-100.00,West,275,14.0,17.0,82,-99.99,,,-99.99,,2013-04-25 12:42:00,
2013-04-25 07:52:00,42.0,35.0,-100.00,WNW,290,17.0,23.0,76,-99.99,,,-99.99,,2013-04-25 12:52:00,
2013-04-25 08:02:00,42.0,35.0,-100.00,WNW,290,17.0,23.0,76,-99.99,,,-99.99,,2013-04-25 13:02:00,
2013-04-25 08:11:00,43.0,36.0,-100.00,WNW,285,16.0,21.0,74,-99.99,,,-99.99,,2013-04-25 13:11:00,
2013-04-25 08:21:00,44.0,35.0,-100.00,WNW,285,20.0,25.0,71,-99.99,,,-99.99,,2013-04-25 13:21:00,
2013-04-25 08:32:00,44.0,35.0,-100.00,WNW,285,20.0,25.0,71,-99.99,,,-99.99,,2013-04-25 13:32:00,
2013-04-25 08:42:00,44.0,34.0,-100.00,WNW,285,19.0,27.0,67,-99.99,,,-99.99,,2013-04-25 13:42:00,
2013-04-25 08:53:00,44.0,33.0,-100.00,NW,305,21.0,27.0,63,-99.99,,,-99.99,,2013-04-25 13:53:00,
2013-04-25 09:02:00,44.0,33.0,-100.00,NW,305,21.0,27.0,63,-99.99,,,-99.99,,2013-04-25 14:02:00,
2013-04-25 09:11:00,45.0,32.0,-100.00,NW,305,21.0,30.0,60,-99.99,,,-99.99,,2013-04-25 14:11:00,
2013-04-25 09:21:00,45.0,29.0,-100.00,NW,305,21.0,27.0,54,-99.99,,,-99.99,,2013-04-25 14:21:00,
2013-04-25 09:32:00,45.0,29.0,-100.00,NW,305,21.0,27.0,54,-99.99,,,-99.99,,2013-04-25 14:32:00,
2013-04-25 09:42:00,45.0,29.0,-100.00,NW,305,21.0,28.0,52,-99.99,,,-99.99,,2013-04-25 14:42:00,
2013-04-25 09:52:00,45.0,28.0,-100.00,WNW,300,20.0,30.0,50,-99.99,,,-99.99,,2013-04-25 14:52:00,
2013-04-25 10:02:00,45.0,28.0,-100.00,WNW,300,20.0,30.0,50,-99.99,,,-99.99,,2013-04-25 15:02:00,
2013-04-25 10:11:00,46.0,28.0,-100.00,WNW,295,20.0,28.0,49,-99.99,,,-99.99,,2013-04-25 15:11:00,
2013-04-25 10:21:00,47.0,29.0,-100.00,WNW,295,19.0,26.0,50,-99.99,,,-99.99,,2013-04-25 15:21:00,
2013-04-25 10:33:00,47.0,29.0,-100.00,WNW,295,19.0,26.0,50,-99.99,,,-99.99,,2013-04-25 15:33:00,
2013-04-25 10:42:00,47.0,29.0,-100.00,WNW,295,19.0,26.0,50,-99.99,,,-99.99,,2013-04-25 15:42:00,
2013-04-25 10:53:00,48.0,29.0,-100.00,WNW,290,21.0,32.0,48,-99.99,,,-99.99,,2013-04-25 15:53:00,
2013-04-25 11:02:00,48.0,29.0,-100.00,WNW,290,21.0,32.0,48,-99.99,,,-99.99,,2013-04-25 16:02:00,
2013-04-25 11:13:00,49.0,31.0,-100.00,NW,310,23.0,28.0,49,-99.99,,,-99.99,,2013-04-25 16:13:00,
2013-04-25 11:24:00,48.0,30.0,-100.00,WNW,295,24.0,34.0,48,-99.99,,,-99.99,,2013-04-25 16:24:00,
2013-04-25 11:32:00,48.0,30.0,-100.00,WNW,295,24.0,34.0,48,-99.99,,,-99.99,,2013-04-25 16:32:00,
2013-04-25 11:43:00,49.0,30.0,-100.00,NW,310,26.0,32.0,48,-99.99,,,-99.99,,2013-04-25 16:43:00,
2013-04-25 11:52:00,49.0,31.0,-100.00,WNW,285,20.0,28.0,48,-99.99,,,-99.99,,2013-04-25 16:52:00,
2013-04-25 12:02:00,49.0,31.0,-100.00,WNW,285,20.0,28.0,48,-99.99,,,-99.99,,2013-04-25 17:02:00,
2013-04-25 12:11:00,51.0,33.0,-100.00,West,275,19.0,28.0,49,-99.99,,,-99.99,,2013-04-25 17:11:00,
2013-04-25 12:22:00,50.0,31.0,-100.00,WNW,300,21.0,29.0,47,-99.99,,,-99.99,,2013-04-25 17:22:00,
2013-04-25 12:32:00,50.0,31.0,-100.00,WNW,300,21.0,29.0,47,-99.99,,,-99.99,,2013-04-25 17:32:00,
2013-04-25 12:42:00,51.0,33.0,-100.00,WNW,295,20.0,33.0,49,-99.99,,,-99.99,,2013-04-25 17:42:00,
2013-04-25 12:53:00,51.0,32.0,-100.00,West,280,22.0,34.0,48,-99.99,,,-99.99,,2013-04-25 17:53:00,
2013-04-25 13:01:00,51.0,32.0,-100.00,West,280,22.0,34.0,48,-99.99,,,-99.99,,2013-04-25 18:01:00,
2013-04-25 13:11:00,51.0,32.0,-100.00,WNW,295,22.0,29.0,48,-99.99,,,-99.99,,2013-04-25 18:11:00,
2013-04-25 13:22:00,52.0,33.0,-100.00,West,275,19.0,29.0,48,-99.99,,,-99.99,,2013-04-25 18:22:00,
2013-04-25 13:32:00,52.0,33.0,-100.00,West,275,19.0,29.0,48,-99.99,,,-99.99,,2013-04-25 18:32:00,
2013-04-25 13:42:00,53.0,33.0,-100.00,WNW,295,24.0,37.0,46,-99.99,,,-99.99,,2013-04-25 18:42:00,
2013-04-25 13:53:00,53.0,32.0,-100.00,WNW,290,21.0,37.0,45,-99.99,,,-99.99,,2013-04-25 18:53:00,
2013-04-25 14:01:00,53.0,32.0,-100.00,WNW,290,21.0,37.0,45,-99.99,,,-99.99,,2013-04-25 19:01:00,
2013-04-25 14:12:00,53.0,33.0,-100.00,NW,310,23.0,33.0,45,-99.99,,,-99.99,,2013-04-25 19:12:00,
2013-04-25 14:21:00,53.0,32.0,-100.00,WNW,290,24.0,33.0,44,-99.99,,,-99.99,,2013-04-25 19:21:00,
2013-04-25 14:31:00,53.0,32.0,-100.00,WNW,290,24.0,33.0,44,-99.99,,,-99.99,,2013-04-25 19:31:00,
2013-04-25 14:42:00,54.0,34.0,-100.00,WNW,285,24.0,33.0,45,-99.99,,,-99.99,,2013-04-25 19:42:00,
2013-04-25 14:52:00,55.0,33.0,-100.00,WNW,285,25.0,33.0,43,-99.99,,,-99.99,,2013-04-25 19:52:00,
2013-04-25 15:02:00,55.0,33.0,-100.00,WNW,285,25.0,33.0,43,-99.99,,,-99.99,,2013-04-25 20:02:00,
2013-04-25 15:11:00,55.0,33.0,-100.00,WNW,285,19.0,30.0,43,-99.99,,,-99.99,,2013-04-25 20:11:00,
2013-04-25 15:22:00,56.0,33.0,-100.00,WNW,300,16.0,29.0,43,-99.99,,,-99.99,,2013-04-25 20:22:00,
2013-04-25 15:32:00,56.0,33.0,-100.00,WNW,300,16.0,29.0,43,-99.99,,,-99.99,,2013-04-25 20:32:00,
2013-04-25 15:42:00,55.0,32.0,-100.00,West,265,22.0,29.0,41,-99.99,,,-99.99,,2013-04-25 20:42:00,
2013-04-25 15:52:00,56.0,33.0,-100.00,West,270,19.0,29.0,41,-99.99,,,-99.99,,2013-04-25 20:52:00,
2013-04-25 16:01:00,56.0,33.0,-100.00,West,270,19.0,29.0,41,-99.99,,,-99.99,,2013-04-25 21:01:00,
2013-04-25 16:11:00,56.0,32.0,-100.00,WNW,295,18.0,25.0,41,-99.99,,,-99.99,,2013-04-25 21:11:00,
2013-04-25 16:22:00,56.0,33.0,-100.00,West,270,19.0,28.0,41,-99.99,,,-99.99,,2013-04-25 21:22:00,
2013-04-25 16:33:00,56.0,33.0,-100.00,West,270,19.0,28.0,41,-99.99,,,-99.99,,2013-04-25 21:33:00,
2013-04-25 16:42:00,57.0,33.0,-100.00,NW,305,15.0,26.0,41,-99.99,,,-99.99,,2013-04-25 21:42:00,
2013-04-25 16:53:00,57.0,34.0,-100.00,West,280,14.0,27.0,41,-99.99,,,-99.99,,2013-04-25 21:53:00,
2013-04-25 17:02:00,57.0,34.0,-100.00,West,280,14.0,27.0,41,-99.99,,,-99.99,,2013-04-25 22:02:00,
2013-04-25 17:12:00,57.0,33.0,-100.00,WNW,300,16.0,21.0,40,-99.99,,,-99.99,,2013-04-25 22:12:00,
2013-04-25 17:22:00,57.0,33.0,-100.00,WNW,285,15.0,23.0,40,-99.99,,,-99.99,,2013-04-25 22:22:00,
2013-04-25 17:33:00,57.0,33.0,-100.00,WNW,285,15.0,23.0,40,-99.99,,,-99.99,,2013-04-25 22:33:00,
2013-04-25 17:42:00,57.0,33.0,-100.00,WSW,255,15.0,19.0,40,-99.99,,,-99.99,,2013-04-25 22:42:00,
2013-04-25 17:53:00,57.0,33.0,-100.00,West,280,16.0,21.0,40,-99.99,,,-99.99,,2013-04-25 22:53:00,
2013-04-25 18:02:00,57.0,33.0,-100.00,West,280,16.0,21.0,40,-99.99,,,-99.99,,2013-04-25 23:02:00,
2013-04-25 18:12:00,57.0,33.0,-100.00,WNW,290,15.0,21.0,40,-99.99,,,-99.99,,2013-04-25 23:12:00,
2013-04-25 18:22:00,56.0,32.0,-100.00,West,280,11.0,18.0,39,-99.99,,,-99.99,,2013-04-25 23:22:00,
2013-04-25 18:32:00,56.0,32.0,-100.00,West,280,11.0,18.0,39,-99.99,,,-99.99,,2013-04-25 23:32:00,
2013-04-25 18:42:00,56.0,31.0,-100.00,West,275,9.0,19.0,38,-99.99,,,-99.99,,2013-04-25 23:42:00,
2013-04-25 18:52:00,56.0,31.0,-100.00,West,260,7.0,17.0,38,-99.99,,,-99.99,,2013-04-25 23:52:00,
2013-04-25 19:01:00,56.0,31.0,-100.00,West,260,7.0,17.0,38,-99.99,,,-99.99,,2013-04-26 00:01:00,
2013-04-25 19:11:00,56.0,32.0,-100.00,WNW,300,10.0,13.0,40,-99.99,,,-99.99,,2013-04-26 00:11:00,
2013-04-25 19:21:00,55.0,31.0,-100.00,West,280,8.0,14.0,40,-99.99,,,-99.99,,2013-04-26 00:21:00,
2013-04-25 19:32:00,55.0,31.0,-100.00,West,280,8.0,14.0,40,-99.99,,,-99.99,,2013-04-26 00:32:00,
2013-04-25 19:41:00,55.0,32.0,-100.00,WNW,295,8.0,10.0,42,-99.99,,,-99.99,,2013-04-26 00:41:00,
2013-04-25 19:52:00,53.0,33.0,-100.00,West,280,4.0,6.0,45,-99.99,,,-99.99,,2013-04-26 00:52:00,
2013-04-25 20:01:00,53.0,33.0,-100.00,West,280,4.0,6.0,45,-99.99,,,-99.99,,2013-04-26 01:01:00,
2013-04-25 20:11:00,52.0,31.0,-100.00,West,265,2.0,4.0,44,-99.99,,,-99.99,,2013-04-26 01:11:00,
2013-04-25 20:21:00,51.0,31.0,-100.00,South,180,4.0,5.0,46,-99.99,,,-99.99,,2013-04-26 01:21:00,
2013-04-25 20:31:00,51.0,31.0,-100.00,South,180,4.0,5.0,46,-99.99,,,-99.99,,2013-04-26 01:31:00,
2013-04-25 20:42:00,50.0,31.0,-100.00,South,170,4.0,5.0,47,-99.99,,,-99.99,,2013-04-26 01:42:00,
2013-04-25 20:52:00,48.0,32.0,-100.00,SSE,155,5.0,6.0,54,-99.99,,,-99.99,,2013-04-26 01:52:00,
2013-04-25 21:02:00,48.0,32.0,-100.00,SSE,155,5.0,6.0,54,-99.99,,,-99.99,,2013-04-26 02:02:00,
2013-04-25 21:11:00,47.0,32.0,-100.00,SSE,150,6.0,8.0,57,-99.99,,,-99.99,,2013-04-26 02:11:00,
2013-04-25 21:21:00,46.0,32.0,-100.00,SE,135,4.0,7.0,58,-99.99,,,-99.99,,2013-04-26 02:21:00,
2013-04-25 21:32:00,46.0,32.0,-100.00,SE,135,4.0,7.0,58,-99.99,,,-99.99,,2013-04-26 02:32:00,
2013-04-25 21:42:00,45.0,33.0,-100.00,ESE,120,4.0,5.0,64,-99.99,,,-99.99,,2013-04-26 02:42:00,
2013-04-25 21:52:00,44.0,34.0,-100.00,SE,140,6.0,6.0,67,-99.99,,,-99.99,,2013-04-26 02:52:00,
2013-04-25 22:01:00,44.0,34.0,-100.00,SE,140,6.0,6.0,67,-99.99,,,-99.99,,2013-04-26 03:01:00,
2013-04-25 22:11:00,44.0,34.0,-100.00,SE,145,9.0,9.0,69,-99.99,,,-99.99,,2013-04-26 03:11:00,
2013-04-25 22:21:00,43.0,34.0,-100.00,SE,130,8.0,10.0,71,-99.99,,,-99.99,,2013-04-26 03:21:00,
2013-04-25 22:33:00,43.0,34.0,-100.00,SE,130,8.0,10.0,71,-99.99,,,-99.99,,2013-04-26 03:33:00,
2013-04-25 22:43:00,42.0,35.0,-100.00,ESE,120,5.0,7.0,75,-99.99,,,-99.99,,2013-04-26 03:43:00,
2013-04-25 22:53:00,41.0,35.0,-100.00,SE,125,6.0,7.0,78,-99.99,,,-99.99,,2013-04-26 03:53:00,
2013-04-25 23:02:00,41.0,35.0,-100.00,SE,125,6.0,7.0,78,-99.99,,,-99.99,,2013-04-26 04:02:00,
2013-04-25 23:12:00,40.0,35.0,-100.00,ESE,120,6.0,7.0,80,-99.99,,,-99.99,,2013-04-26 04:12:00,
2013-04-25 23:23:00,40.0,35.0,-100.00,SE,135,6.0,8.0,82,-99.99,,,-99.99,,2013-04-26 04:23:00,
2013-04-25 23:32:00,40.0,35.0,-100.00,SE,135,6.0,8.0,82,-99.99,,,-99.99,,2013-04-26 04:32:00,
2013-04-25 23:43:00,40.0,35.0,-100.00,SE,125,6.0,10.0,82,-99.99,,,-99.99,,2013-04-26 04:43:00,
2013-04-25 23:53:00,40.0,35.0,-100.00,SSE,150,11.0,11.0,82,-99.99,,,-99.99,,2013-04-26 04:53:00,